Location: Unspecified
(0.0000°N, 0.0000°E)
Time: 16:52:01
(UTC+00:00)

Transtage 10 - Visible Passes

Search period start: 15 May 2026 00:00
Search period end: 25 May 2026 00:00
Orbit: 7362 x 112322 km, 16.0° (Epoch: 6 May)

Date Brightness Start Highest point End Pass type
(mag) Time Alt. Az. Time Alt. Az. Time Alt. Az.
15 May ? 05:32:52 10° E 11:22:07 85° S 22:41:36 10° ENE visible
16 May ? 01:57:15 10° ENE 08:29:30 82° N 14:17:37 10° W visible
17 May ? 05:30:59 10° E 11:23:00 85° S 21:28:46 10° ENE visible
18 May ? 02:13:42 10° ENE 08:29:27 82° N 14:15:28 10° W visible
19 May ? 05:29:24 10° E 11:24:57 84° S 20:22:32 10° E visible
20 May ? 02:22:39 10° E 08:28:47 83° N 14:13:06 10° W visible
21 May ? 05:28:12 10° E 11:28:21 83° S 19:19:06 10° E visible
22 May ? 02:27:59 10° E 08:27:39 83° N 14:10:34 10° W visible
23 May ? 05:27:27 10° E 11:33:50 82° S 18:17:05 10° E visible
24 May ? 02:31:08 10° E 08:26:06 84° N 14:07:53 10° W visible
